RCH8526 ELLX-LIPA

Flight info

Callsign RCH8526
Flight time 1h 3m
Altitude 41000
Route LIMGO Z111 PITES M150 GEBDA/N0446F400 Y173 PABLA/N0441F390 Z721 UTABA L607 ELMEM N606 OTRES T307 DIRAB
Aircraft B737/M-SDE2E3FGHIRWXY/LB1

Departure

Time 2026-05-08 16:04
Airport Luxembourg-Findel International Airport (ELLX)

Arrival

Time 2026-05-08 17:07
Airport Aviano Air Base (LIPA)
Time Latitude Longitude Altitude Speed Heading
2026-05-08 15:37 49.63250 6.21985 1195 ft 0 kts 207°
2026-05-08 15:57 49.63242 6.21979 1195 ft 3 kts 207°
2026-05-08 15:57 49.63206 6.21951 1195 ft 8 kts 206°
2026-05-08 15:58 49.63150 6.21878 1196 ft 13 kts 240°
2026-05-08 15:58 49.63109 6.21749 1196 ft 13 kts 244°
2026-05-08 15:58 49.63070 6.21623 1196 ft 13 kts 244°
2026-05-08 15:58 49.63031 6.21500 1196 ft 13 kts 244°
2026-05-08 15:59 49.62995 6.21380 1196 ft 12 kts 244°
2026-05-08 15:59 49.62958 6.21263 1196 ft 12 kts 244°
2026-05-08 15:59 49.62923 6.21150 1196 ft 12 kts 244°
2026-05-08 15:59 49.62887 6.21035 1196 ft 16 kts 244°
2026-05-08 16:00 49.62834 6.20863 1195 ft 19 kts 244°
2026-05-08 16:00 49.62759 6.20704 1196 ft 18 kts 223°
2026-05-08 16:00 49.62664 6.20580 1197 ft 18 kts 221°
2026-05-08 16:00 49.62583 6.20444 1198 ft 17 kts 228°
2026-05-08 16:01 49.62503 6.20314 1199 ft 16 kts 234°
2026-05-08 16:01 49.62450 6.20162 1198 ft 16 kts 244°
2026-05-08 16:01 49.62398 6.20017 1193 ft 15 kts 239°
2026-05-08 16:01 49.62342 6.19868 1197 ft 17 kts 240°
2026-05-08 16:02 49.62280 6.19699 1196 ft 19 kts 241°
2026-05-08 16:02 49.62211 6.19513 1195 ft 21 kts 240°
2026-05-08 16:02 49.62137 6.19316 1193 ft 22 kts 240°
2026-05-08 16:02 49.62051 6.19084 1192 ft 30 kts 240°
2026-05-08 16:03 49.61947 6.18817 1191 ft 28 kts 234°
2026-05-08 16:03 49.61835 6.18716 1186 ft 17 kts 171°
2026-05-08 16:03 49.61793 6.18860 1183 ft 15 kts 60°
2026-05-08 16:03 49.61820 6.18931 1184 ft 7 kts 60°
2026-05-08 16:04 49.61926 6.19214 1187 ft 78 kts 60°
2026-05-08 16:04 49.62340 6.20334 1376 ft 150 kts 60°
2026-05-08 16:04 49.62878 6.21749 2522 ft 150 kts 59°
2026-05-08 16:04 49.63406 6.23097 3743 ft 152 kts 59°
2026-05-08 16:05 49.63768 6.24025 3847 ft 152 kts 60°
2026-05-08 16:05 49.64348 6.25509 4013 ft 176 kts 60°
2026-05-08 16:05 49.64980 6.27132 4393 ft 178 kts 60°
2026-05-08 16:05 49.65630 6.28811 5552 ft 179 kts 60°
2026-05-08 16:06 49.66268 6.30469 6673 ft 185 kts 60°
2026-05-08 16:06 49.66944 6.32214 7637 ft 195 kts 61°
2026-05-08 16:06 49.67669 6.34076 8423 ft 216 kts 61°
2026-05-08 16:06 49.68363 6.36286 8856 ft 244 kts 67°
2026-05-08 16:07 49.69088 6.38866 9114 ft 279 kts 68°
2026-05-08 16:07 49.69903 6.41719 9695 ft 298 kts 67°
2026-05-08 16:07 49.70765 6.44670 10697 ft 304 kts 66°
2026-05-08 16:07 49.71642 6.47642 12003 ft 304 kts 66°
2026-05-08 16:08 49.72333 6.50729 13180 ft 307 kts 85°
2026-05-08 16:08 49.72148 6.54060 13897 ft 325 kts 110°
2026-05-08 16:08 49.71174 6.57345 14498 ft 344 kts 119°
2026-05-08 16:08 49.70032 6.60649 15446 ft 352 kts 120°
2026-05-08 16:09 49.68848 6.63985 16522 ft 357 kts 120°
2026-05-08 16:09 49.67645 6.67368 17577 ft 363 kts 120°
2026-05-08 16:09 49.66425 6.70820 18557 ft 369 kts 120°
2026-05-08 16:09 49.65192 6.74334 19463 ft 375 kts 120°
2026-05-08 16:10 49.63948 6.77895 20393 ft 380 kts 120°
2026-05-08 16:10 49.62690 6.81512 21318 ft 385 kts 120°
2026-05-08 16:10 49.61414 6.85181 22211 ft 391 kts 120°
2026-05-08 16:10 49.60120 6.88903 23073 ft 397 kts 120°
2026-05-08 16:11 49.58805 6.92683 23886 ft 403 kts 120°
2026-05-08 16:11 49.57471 6.96512 24630 ft 407 kts 121°
2026-05-08 16:11 49.56129 7.00362 25411 ft 410 kts 121°
2026-05-08 16:11 49.54772 7.04248 26175 ft 413 kts 121°
2026-05-08 16:12 49.53406 7.08153 26956 ft 415 kts 121°
2026-05-08 16:12 49.52037 7.12064 27866 ft 414 kts 121°
2026-05-08 16:12 49.50676 7.15945 28867 ft 410 kts 121°
2026-05-08 16:12 49.49326 7.19792 29878 ft 406 kts 121°
2026-05-08 16:13 49.47990 7.23591 30705 ft 404 kts 121°
2026-05-08 16:13 49.46645 7.27404 31258 ft 407 kts 121°
2026-05-08 16:13 49.45288 7.31243 31760 ft 411 kts 121°
2026-05-08 16:13 49.43917 7.35120 32345 ft 413 kts 121°
2026-05-08 16:14 49.42542 7.39001 32852 ft 418 kts 121°
2026-05-08 16:14 49.41130 7.42978 32939 ft 431 kts 121°
2026-05-08 16:14 49.39672 7.47079 33056 ft 443 kts 121°
2026-05-08 16:14 49.38180 7.51270 33151 ft 453 kts 121°
2026-05-08 16:15 49.36652 7.55562 33320 ft 461 kts 121°
2026-05-08 16:15 49.35124 7.59846 33587 ft 466 kts 121°
2026-05-08 16:15 49.33566 7.64211 34043 ft 467 kts 121°
2026-05-08 16:15 49.32008 7.68565 34448 ft 466 kts 121°
2026-05-08 16:16 49.30448 7.72919 34860 ft 466 kts 121°
2026-05-08 16:16 49.28886 7.77271 35240 ft 466 kts 121°
2026-05-08 16:16 49.27322 7.81618 35590 ft 467 kts 121°
2026-05-08 16:16 49.25754 7.85970 36037 ft 464 kts 121°
2026-05-08 16:17 49.24211 7.90264 36668 ft 458 kts 121°
2026-05-08 16:17 49.22452 7.94312 36977 ft 458 kts 132°
2026-05-08 16:17 49.20305 7.97933 37176 ft 460 kts 136°
2026-05-08 16:17 49.18075 8.01462 37383 ft 464 kts 136°
2026-05-08 16:18 49.15812 8.04989 37638 ft 466 kts 136°
2026-05-08 16:18 49.13542 8.08535 37894 ft 468 kts 136°
2026-05-08 16:18 49.11269 8.12111 38125 ft 470 kts 136°
2026-05-08 16:18 49.08993 8.15720 38338 ft 473 kts 136°
2026-05-08 16:19 49.06717 8.19348 38549 ft 475 kts 136°
2026-05-08 16:19 49.04429 8.23004 38744 ft 477 kts 136°
2026-05-08 16:19 49.02134 8.26673 38907 ft 479 kts 136°
2026-05-08 16:19 48.99831 8.30352 39052 ft 480 kts 136°
2026-05-08 16:20 48.97522 8.34034 39207 ft 482 kts 136°
2026-05-08 16:20 48.95200 8.37729 39340 ft 483 kts 136°
2026-05-08 16:20 48.92876 8.41422 39514 ft 483 kts 136°
2026-05-08 16:20 48.90558 8.45100 39902 ft 479 kts 136°
2026-05-08 16:21 48.88265 8.48734 40244 ft 476 kts 136°
2026-05-08 16:21 48.85972 8.52361 40412 ft 477 kts 136°
2026-05-08 16:21 48.81337 8.59671 40648 ft 482 kts 136°
2026-05-08 16:22 48.79017 8.63325 40936 ft 479 kts 136°
2026-05-08 16:22 48.76702 8.66965 41053 ft 481 kts 136°
2026-05-08 16:22 48.72039 8.74282 41029 ft 482 kts 136°
2026-05-08 16:23 48.67395 8.81550 41031 ft 479 kts 136°
2026-05-08 16:23 48.62769 8.88768 41032 ft 477 kts 136°
2026-05-08 16:24 48.58145 8.95962 41036 ft 477 kts 137°
2026-05-08 16:24 48.53521 9.03136 41031 ft 477 kts 137°
2026-05-08 16:25 48.48888 9.10304 41042 ft 477 kts 137°
2026-05-08 16:25 48.44275 9.17422 41046 ft 478 kts 137°
2026-05-08 16:26 48.39623 9.24581 41045 ft 479 kts 137°
2026-05-08 16:26 48.34950 9.31753 41043 ft 480 kts 137°
2026-05-08 16:27 48.30275 9.38909 41043 ft 480 kts 137°
2026-05-08 16:27 48.25589 9.46053 41019 ft 480 kts 138°
2026-05-08 16:28 48.20627 9.52709 41034 ft 478 kts 142°
2026-05-08 16:28 48.15558 9.59154 41030 ft 478 kts 142°
2026-05-08 16:29 48.10495 9.65624 41030 ft 478 kts 142°
2026-05-08 16:29 48.05450 9.72115 41023 ft 479 kts 142°
2026-05-08 16:30 48.00404 9.78604 41023 ft 479 kts 142°
2026-05-08 16:30 47.95352 9.85081 41040 ft 478 kts 142°
2026-05-08 16:31 47.90299 9.91541 41039 ft 479 kts 142°
2026-05-08 16:31 47.85239 9.97994 41038 ft 479 kts 142°
2026-05-08 16:32 47.80051 10.04158 41040 ft 477 kts 146°
2026-05-08 16:32 47.74702 10.09973 41034 ft 476 kts 147°
2026-05-08 16:33 47.69394 10.15754 41036 ft 476 kts 147°
2026-05-08 16:33 47.64068 10.21616 41038 ft 476 kts 146°
2026-05-08 16:34 47.58755 10.27467 41060 ft 476 kts 147°
2026-05-08 16:34 47.53432 10.33303 41038 ft 476 kts 147°
2026-05-08 16:35 47.48108 10.39138 41069 ft 476 kts 147°
2026-05-08 16:35 47.42799 10.44945 41071 ft 475 kts 147°
2026-05-08 16:36 47.37330 10.50347 41075 ft 471 kts 155°
2026-05-08 16:36 47.31516 10.54800 41059 ft 471 kts 155°
2026-05-08 16:37 47.25753 10.59330 41047 ft 465 kts 155°
2026-05-08 16:37 47.20080 10.63790 41050 ft 459 kts 155°
2026-05-08 16:38 47.17237 10.65999 40565 ft 466 kts 157°
2026-05-08 16:38 47.14271 10.67879 40039 ft 461 kts 163°
2026-05-08 16:38 47.11254 10.69453 39408 ft 460 kts 164°
2026-05-08 16:38 47.08230 10.71005 38697 ft 460 kts 164°
2026-05-08 16:39 47.05248 10.72642 37855 ft 458 kts 159°
2026-05-08 16:39 47.04837 10.72915 37758 ft 459 kts 158°
2026-05-08 16:39 47.02141 10.75179 37061 ft 461 kts 149°
2026-05-08 16:39 46.99655 10.78075 36841 ft 453 kts 140°
2026-05-08 16:40 46.97447 10.81360 36046 ft 452 kts 137°
2026-05-08 16:40 46.95297 10.84738 35219 ft 454 kts 137°
2026-05-08 16:40 46.93153 10.88135 34347 ft 454 kts 138°
2026-05-08 16:40 46.91002 10.91506 33388 ft 450 kts 139°
2026-05-08 16:41 46.88871 10.94803 32736 ft 442 kts 139°
2026-05-08 16:41 46.86763 10.98034 32081 ft 437 kts 139°
2026-05-08 16:41 46.84671 11.01224 31454 ft 432 kts 139°
2026-05-08 16:42 46.80553 11.07491 30252 ft 424 kts 139°
2026-05-08 16:42 46.78562 11.10548 29671 ft 419 kts 139°
2026-05-08 16:42 46.76568 11.13603 29102 ft 412 kts 139°
2026-05-08 16:42 46.74601 11.16609 28516 ft 409 kts 139°
2026-05-08 16:43 46.72635 11.19594 27825 ft 406 kts 139°
2026-05-08 16:43 46.70682 11.22535 27199 ft 402 kts 138°
2026-05-08 16:43 46.68734 11.25442 26560 ft 399 kts 138°
2026-05-08 16:43 46.66795 11.28307 25935 ft 396 kts 138°
2026-05-08 16:44 46.64862 11.31130 25352 ft 392 kts 138°
2026-05-08 16:44 46.62930 11.33925 24734 ft 390 kts 139°
2026-05-08 16:44 46.61007 11.36685 24124 ft 387 kts 138°
2026-05-08 16:44 46.59090 11.39395 23550 ft 383 kts 138°
2026-05-08 16:45 46.57165 11.42051 22858 ft 380 kts 139°
2026-05-08 16:45 46.55246 11.44676 22232 ft 377 kts 139°
2026-05-08 16:45 46.53344 11.47263 21614 ft 374 kts 139°
2026-05-08 16:45 46.51451 11.49830 21159 ft 370 kts 138°
2026-05-08 16:46 46.49614 11.52396 21038 ft 367 kts 137°
2026-05-08 16:46 46.47814 11.54953 20988 ft 356 kts 137°
2026-05-08 16:46 46.46092 11.57416 20978 ft 339 kts 137°
2026-05-08 16:46 46.44448 11.59778 20995 ft 330 kts 137°
2026-05-08 16:47 46.42759 11.62203 20772 ft 361 kts 136°
2026-05-08 16:47 46.40909 11.64839 20208 ft 377 kts 137°
2026-05-08 16:47 46.39049 11.67483 19427 ft 376 kts 137°
2026-05-08 16:47 46.37185 11.70126 18487 ft 373 kts 137°
2026-05-08 16:48 46.35342 11.72724 17433 ft 367 kts 137°
2026-05-08 16:48 46.33522 11.75277 16400 ft 362 kts 137°
2026-05-08 16:48 46.31728 11.77792 15542 ft 354 kts 137°
2026-05-08 16:48 46.30073 11.80259 15309 ft 330 kts 134°
2026-05-08 16:49 46.28586 11.82664 15156 ft 316 kts 133°
2026-05-08 16:49 46.27140 11.84999 15078 ft 305 kts 134°
2026-05-08 16:49 46.25745 11.87203 15052 ft 291 kts 134°
2026-05-08 16:49 46.24366 11.89333 15065 ft 290 kts 134°
2026-05-08 16:50 46.22974 11.91450 15072 ft 292 kts 135°
2026-05-08 16:50 46.21572 11.93560 15065 ft 290 kts 135°
2026-05-08 16:50 46.20176 11.95645 15067 ft 288 kts 135°
2026-05-08 16:50 46.18781 11.97719 15064 ft 288 kts 136°
2026-05-08 16:51 46.17390 11.99785 15057 ft 287 kts 135°
2026-05-08 16:51 46.15997 12.01844 15062 ft 286 kts 135°
2026-05-08 16:51 46.14588 12.03863 15057 ft 285 kts 137°
2026-05-08 16:51 46.13185 12.05889 15060 ft 286 kts 135°
2026-05-08 16:52 46.11792 12.07941 15058 ft 287 kts 135°
2026-05-08 16:52 46.10869 12.09305 15058 ft 287 kts 135°
2026-05-08 16:52 46.09473 12.11372 15062 ft 288 kts 135°
2026-05-08 16:52 46.08075 12.13442 15059 ft 289 kts 135°
2026-05-08 16:53 46.05268 12.17607 15051 ft 290 kts 133°
2026-05-08 16:53 46.04069 12.19948 15037 ft 291 kts 123°
2026-05-08 16:53 46.03028 12.22458 15026 ft 292 kts 121°
2026-05-08 16:54 46.02015 12.24989 15031 ft 292 kts 121°
2026-05-08 16:54 46.00993 12.27518 15015 ft 292 kts 121°
2026-05-08 16:54 45.99961 12.30032 15013 ft 292 kts 121°
2026-05-08 16:54 45.98917 12.32535 14977 ft 292 kts 122°
2026-05-08 16:55 45.97828 12.35124 13664 ft 318 kts 122°
2026-05-08 16:55 45.96675 12.37842 12773 ft 317 kts 122°
2026-05-08 16:55 45.95542 12.40503 12325 ft 303 kts 122°
2026-05-08 16:55 45.94474 12.43005 12168 ft 286 kts 122°
2026-05-08 16:56 45.93448 12.45401 12034 ft 277 kts 122°
2026-05-08 16:56 45.92446 12.47736 11841 ft 275 kts 122°
2026-05-08 16:56 45.91403 12.50164 10904 ft 292 kts 122°
2026-05-08 16:56 45.90332 12.52656 10076 ft 294 kts 122°
2026-05-08 16:57 45.89256 12.55158 9177 ft 295 kts 122°
2026-05-08 16:57 45.88175 12.57672 8277 ft 296 kts 122°
2026-05-08 16:57 45.87096 12.60176 7509 ft 293 kts 121°
2026-05-08 16:57 45.86049 12.62601 7027 ft 280 kts 121°
2026-05-08 16:58 45.85039 12.64939 6538 ft 271 kts 122°
2026-05-08 16:58 45.83783 12.66861 5997 ft 265 kts 152°
2026-05-08 16:58 45.82030 12.67308 5706 ft 253 kts 192°
2026-05-08 16:58 45.80575 12.66188 5704 ft 230 kts 225°
2026-05-08 16:59 45.79784 12.64305 5670 ft 218 kts 254°
2026-05-08 16:59 45.79670 12.62158 5670 ft 218 kts 277°
2026-05-08 16:59 45.80196 12.60072 5307 ft 227 kts 301°
2026-05-08 16:59 45.81054 12.58167 4984 ft 228 kts 304°
2026-05-08 17:00 45.81927 12.56292 4616 ft 224 kts 304°
2026-05-08 17:00 45.82782 12.54457 4286 ft 219 kts 303°
2026-05-08 17:00 45.83606 12.52681 4137 ft 208 kts 303°
2026-05-08 17:00 45.84393 12.50977 4014 ft 201 kts 303°
2026-05-08 17:01 45.85156 12.49320 3923 ft 199 kts 303°
2026-05-08 17:01 45.85923 12.47653 3846 ft 201 kts 303°
2026-05-08 17:01 45.86689 12.45982 3761 ft 201 kts 303°
2026-05-08 17:01 45.87457 12.44308 3678 ft 201 kts 303°
2026-05-08 17:02 45.88268 12.42684 3553 ft 201 kts 308°
2026-05-08 17:02 45.89219 12.41229 3306 ft 200 kts 326°
2026-05-08 17:02 45.90548 12.40794 3017 ft 201 kts 13°
2026-05-08 17:02 45.91700 12.41791 2853 ft 192 kts 44°
2026-05-08 17:03 45.92655 12.43101 2629 ft 186 kts 45°
2026-05-08 17:03 45.93533 12.44418 2426 ft 179 kts 48°
2026-05-08 17:03 45.94342 12.45696 2220 ft 166 kts 48°
2026-05-08 17:03 45.95067 12.46851 2037 ft 148 kts 49°
2026-05-08 17:04 45.95716 12.47885 1896 ft 131 kts 49°
2026-05-08 17:04 45.96329 12.48863 1750 ft 131 kts 48°
2026-05-08 17:04 45.96933 12.49825 1594 ft 128 kts 48°
2026-05-08 17:04 45.97531 12.50778 1444 ft 128 kts 48°
2026-05-08 17:05 45.98122 12.51717 1338 ft 127 kts 49°
2026-05-08 17:05 45.98715 12.52675 1251 ft 130 kts 47°
2026-05-08 17:05 45.99324 12.53616 1140 ft 127 kts 48°
2026-05-08 17:05 45.99897 12.54553 1000 ft 124 kts 49°
2026-05-08 17:06 46.00463 12.55497 854 ft 126 kts 47°
2026-05-08 17:06 46.01060 12.56433 704 ft 127 kts 46°
2026-05-08 17:06 46.01652 12.57355 561 ft 126 kts 46°
2026-05-08 17:06 46.02247 12.58287 408 ft 126 kts 46°
2026-05-08 17:07 46.02807 12.59172 335 ft 109 kts 47°
2026-05-08 17:07 46.03236 12.59846 336 ft 69 kts 47°
2026-05-08 17:07 46.03379 12.60090 336 ft 12 kts 87°
2026-05-08 17:07 46.03341 12.60162 336 ft 9 kts 136°
2026-05-08 17:08 46.03324 12.60186 338 ft 0 kts 137°
2026-05-08 17:08 46.03322 12.60188 338 ft 2 kts 137°
2026-05-08 17:08 46.03306 12.60239 338 ft 10 kts 83°
2026-05-08 17:08 46.03355 12.60326 337 ft 16 kts 47°
2026-05-08 17:09 46.03420 12.60432 336 ft 12 kts 70°
2026-05-08 17:09 46.03374 12.60532 337 ft 13 kts 140°
2026-05-08 17:09 46.03310 12.60615 336 ft 12 kts 137°
2026-05-08 17:09 46.03319 12.60701 338 ft 10 kts 28°
2026-05-08 17:10 46.03365 12.60673 336 ft 7 kts 314°
2026-05-08 17:10 46.03383 12.60650 338 ft 0 kts 319°
2026-05-08 17:10 46.00362 12.55331 885 ft 125 kts 49°
2026-05-08 17:11 46.00699 12.55867 880 ft 427 kts 45°
2026-05-08 17:11 46.01786 12.57435 837 ft 276 kts 47°